Regional Weather Roundup
Issued by NWS

Home | Current Version | Previous Version | Graphics & Text | Print | Product List | Glossary Off
Versions: 1 2 3 4 5 6 7 8 9 10 11 12 13 14 15 16 17 18 19 20 21 22 23 24 25 26 27 28 29 30 31 32 33 34 35 36 37 38 39 40 41 42 43 44 45 46 47 48 49 50

000
ASUS43 KTOP 270359
RWRKS

WEATHER ROUNDUP FOR KANSAS
NATIONAL WEATHER SERVICE GOODLAND KS
1000 PM CST FRI DEC 26 2014

NOTE:  "FAIR" INDICATES FEW OR NO CLOUDS BELOW 12,000 FEET WITH NO
SIGNIFICANT WEATHER AND/OR OBSTRUCTIONS TO VISIBILITY.

KSZ001>006-013>018-027>032-041>047-270500-
NORTHWEST KANSAS

CITY           SKY/WX    TMP DP  RH WIND       PRES   REMARKS
GOODLAND       CLOUDY    17  14  88 NW9       30.12R
HAYS           CLOUDY    25  16  68 NW13      30.12R WCI  13
HILL CITY      FLURRIES  21  18  88 NW6       30.14R
RUSSELL        CLOUDY    26  24  92 NW15      30.11R WCI  14
$$

KSZ061>065-074>080-084>089-270500-
SOUTHWEST KANSAS

CITY           SKY/WX    TMP DP  RH WIND       PRES   REMARKS
DODGE CITY     CLEAR     22  19  89 NW10      30.11R WCI  11
ELKHART          N/A     17   9  71 NW8         N/A
GARDEN CITY    CLEAR     17  16  95 NW7       30.13R
GREAT BEND     CLOUDY    27  21  80 NW13      30.12R WCI  16
LIBERAL        PTCLDY    21  16  79 NW7       30.14R
$$

KSZ066>073-081>083-090>101-270500-
SOUTHEAST KANSAS

CITY           SKY/WX    TMP DP  RH WIND       PRES   REMARKS
CHANUTE        CLOUDY    41  37  86 NW12      30.03R
COFFEYVILLE    LGT RAIN  44  40  85 NW9       30.04R
HUTCHINSON     FRZ RAIN  32  29  88 NW12      30.09R FOG     WCI  23
MEDICINE LODGE   N/A     32  27  81 NW9       30.12R
NEWTON         CLOUDY    32  27  80 NW12      30.09R WCI  23
PARSONS        CLOUDY    43  39  86 NW12      30.04R
WICHITA INTL   CLOUDY    34  29  82 NW14      30.10R WCI  25
WICHITA JABRA  CLOUDY    33  30  88 NW10      30.08S WCI  25
WICHITA MCCONL CLOUDY    34  32  93 NW12G18   30.09R WCI  25
WINFIELD       CLOUDY    35  32  88 NW14      30.11R WCI  26
$$

KSZ007>012-019>026-033>040-048>060-102>105-270500-
NORTHEAST KANSAS

CITY           SKY/WX    TMP DP  RH WIND       PRES   REMARKS
CONCORDIA      CLOUDY    28  27  96 NW14      30.07R WCI  17
EMPORIA        CLOUDY    35  33  92 W7        30.04R FOG
LAWRENCE       CLOUDY    38  32  79 NW6       30.01R
MANHATTAN      CLOUDY    33  32  96 NW6       30.06R FOG
OLATHE IND     CLOUDY    39  34  82 NW5       30.00R
OLATHE EXE     CLOUDY    40  35  83 NW6       29.98R
SALINA         CLOUDY    32  29  88 NW13      30.10R WCI  22
TOPEKA BILLARD CLOUDY    38  33  82 W3        30.03R
TOPEKA FORBES  CLOUDY    38  32  79 NW7       30.01S
$$



USA.gov is the U.S. government's official web portal to all federal, state and local government web resources and services.